METEOR 1-22

Satellite information

Favourite Embed

Satellite Type and Status

PAYLOADIN ORBIT

Key statistics

Satellite METEOR 1-22 at a glance.

Uptime

18128

Days in orbit

Revolutions

≈ 14.1

Per day

Orbit

LEO

Low Earth Orbit

Inclination

81.3

Latest

Satellite identification and parameters

Extended collection of information and parameters for METEOR 1-22.

Object identification

Identified? True

Debris? False

Object name: METEOR 1-22

International designator: 1975-087A

Object number (NORAD): 8293

Object ID (CCSDS): 8293

Country: COMMONWEALTH OF INDEPENDENT STATES (CIS)

Current information (Y/N): Y

RCS size: LARGE

Orbital parameters

Period: 101.924 minutes

Inclination: 81.2594 deg

SMA: 7227.887 km

Apoapsis: 904.604 km

Periapsis: 794.9 km

RAAN: 24.1189 deg

Eccentricy: 0.0075889

Argument of periapsis: 49.4797 deg

Mean anomaly: 311.2953 deg

Mean motion: 14.12816381 rev/day

Mean motion (dot): 0.00000302 rev/day2

B* drag term: 0.00015112 1/REarth

Two-line elements (TLE)

Creation date: May 5, 2025, 2:11 a.m.

Reference frame: TEME

Reference center: EARTH

Epoch: May 4, 2025, 9:12 p.m. UTC

TLE line 0: 0 METEOR 1-22

TLE line 1: 1 08293U 75087A 25124.88393132 .00000302 00000-0 15112-3 0 9998

TLE line 2: 2 08293 81.2594 24.1189 0075889 49.4797 311.2953 14.12816381555414

Live tracking on map

Real-time ground track for satellite METEOR 1-22.

In-orbit conjunctions

A list of the most updated potential collisions computed for object METEOR 1-22.

Target Orbit TCA Probability of collision Miss distance Type
COSMOS 1375 DEB LEO 2025-03-11 11:40:16 0.0001798188 333.0 (m) DEBRIS
FENGYUN 1C DEB SSO 2025-02-02 19:04:08 0.0001174104 813.0 (m) DEBRIS
CZ-6A DEB SSO 2025-01-22 14:26:25 0.0003028485 562.0 (m) DEBRIS
FENGYUN 1C DEB SSO 2024-10-01 13:30:44 0.0001773514 765.0 (m) DEBRIS
FENGYUN 1C DEB SSO 2024-08-08 02:41:39 0.0005829685 560.0 (m) DEBRIS

Associated space launch

The Meteor-1 series was the first series of Soviet meteorological satellites.

METEOR 1-22 was lifted into orbit during the mission ‘Vostok 8A92M | Meteor-1 22 (28L)’, on board a Vostok 8A92M space rocket.

The launch took place on Sept. 18, 1975, 12:12 a.m. from 41/1.

For more information about the launch, click the button.

Launch to space Vostok 8A92M | Meteor-1 22 (28L)
Vostok 8A92M | Meteor-1 22 (28L)

Agency: N/A

Status: Launch Successful

Launch date: Sept. 18, 1975, 12:12 a.m. UTC

Rocket: Vostok 8A92M

Launch pad: 41/1

Location: Plesetsk Cosmodrome, Russian Federation

...

Latest news about this satellite

There are no fresh news available about this satellite. Check back as we update our databases every day.


Newsletter sign-up

Weekly statistics, charts and insights to help you stay on top of the space industry.